Location: *
(50.9167°S, 179.4000°W)
Time: 04:30:31
(UTC+00:00)

ATLAS 2AS CENTAUR R/B - Pass Details

Date: 20 June 2024
Orbit: 1019 x 1192 km, 63.7° (Epoch: 21 July)

Event Time Altitude Azimuth Distance (km) Brightness Sun altitude
Exits shadow 15:53:34 28° 167° (SSE) 1,971 4.2 -37.6°
Drops below altitude 10° 15:58:19 10° 129° (SE) 3,064 5.7 -36.9°
Sets 16:01:29 0° 119° (ESE) 4,050 6.6 -36.4°
